Regional Weather Roundup
Issued by NWS

Home | Current Version | Previous Version | Text Only | Print | Product List | Glossary Off
Versions: 1 2 3 4 5 6 7 8 9 10 11 12 13 14 15 16 17 18 19 20 21 22 23 24 25 26 27 28 29 30 31 32 33 34 35 36 37 38 39 40 41 42 43 44 45 46 47 48 49 50

000
ASUS43 KLOT 240708
RWRIL

ILLINOIS REGIONAL WEATHER ROUNDUP
NATIONAL WEATHER SERVICE CHICAGO/ROMEOVILLE IL
100 AM CST TUE JAN 24 2017

NOTE: "FAIR" INDICATES FEW OR NO CLOUDS BELOW 12,000 FEET WITH NO
SIGNIFICANT WEATHER AND/OR OBSTRUCTIONS TO VISIBILITY.

* THESE STATIONS ARE NOT UNDER NWS QUALITY CONTROL. THEY ALSO MAY NOT
  REPORT WEATHER SUCH AS PRECIPITATION OR FOG.

ILZ001-002-007-009-015-016-024-240800-
NORTHWEST ILLINOIS

CITY           SKY/WX    TMP DP  RH WIND       PRES   REMARKS
MOLINE         CLOUDY    35  31  85 W5        29.86S WCI  31
STERLING*      CLOUDY    35  34  96 W6        29.85S WCI  30
SAVANNA*       CLOUDY    35  33  93 NW3       29.86R
$$

ILZ003-004-008-010-011-017-018-240800-
NORTH CENTRAL ILLINOIS

CITY           SKY/WX    TMP DP  RH WIND       PRES   REMARKS
ROCKFORD       CLOUDY    37  32  82 NW6       29.84F WCI  32
FREEPORT*      CLOUDY    34  31  91 CALM      29.86S
ROCHELLE*      CLOUDY    35  33  94 CALM      29.84S
DE KALB*       CLOUDY    37  34  90 NW5       29.83S WCI  33
PERU*          CLOUDY    35  33  92 W7        29.85R FOG     WCI  30
$$

ILZ005-006-012>014-019>023-240800-
NORTHEAST ILLINOIS

CITY           SKY/WX    TMP DP  RH WIND       PRES   REMARKS
CHICAGO-OHARE  CLOUDY    38  34  85 NW8       29.80S WCI  32
CHICAGO-MIDWAY CLOUDY    39  33  79 NW12      29.81S WCI  32
AURORA         CLOUDY    37  34  89 NW5       29.82F WCI  33
LANSING*       CLOUDY    38  37  92 NW8       29.81S WCI  33
JOLIET*        CLOUDY    40  37  91 NW5       29.82F
WAUKEGAN       CLOUDY    37  34  89 W5        29.80R WCI  33
DUPAGE AIRPORT CLOUDY    38  32  79 N8        29.81S WCI  32
KANKAKEE*      CLOUDY    39  36  88 CALM      29.82S
WHEELING       CLOUDY    38  34  85 NW8       29.82S WCI  32
MORRIS*        CLOUDY    37  35  92 CALM      29.81F
ROMEOVILLE*    CLOUDY    38  37  94 NW7       29.81F WCI  33
NORTHERLY ISL    N/A     39  33  79 W8          N/A  WCI  33
$$

LMZ740>746-240800-
SOUTHERN LAKE MICHIGAN

STATION/POSITION SKY/WX   TEMP    WIND        PRES    VSBY  WAVE
                          AIR SEA DIR/SP/G                  HT/PER
                          (F)     (DEG/KT/KT) (MB)    (MI)  (FT/S)
HARRISON CRIB              40     300/ 10/ 11   N/A
BURNHAM HARBOR             39     270/  6/  9   N/A
CALUMET HARBOR                    280/  6/  8 1008.7F
BURNS HARBOR               35     310/  6/  8 1009.8R
MICHIGAN CITY              37     300/ 11/ 12   N/A
$$

ILZ025>027-034>036-040-047-049-050-058-095>099-240800-
WEST-CENTRAL ILLINOIS

CITY           SKY/WX    TMP DP  RH WIND       PRES   REMARKS
QUINCY         CLOUDY    34  30  85 NW3       29.87S
GALESBURG*     CLOUDY    33  33 100 W6        29.87S WCI  27
MACOMB*        CLOUDY    34  32  92 NW5       29.89S WCI  30
JACKSONVILLE*  CLOUDY    36  32  85 CALM      29.87F
PITTSFIELD*    CLOUDY    36  31  84 CALM      29.87F
$$

ILZ028>032-037-038-041>044-048-051>054-059>061-240800-
CENTRAL ILLINOIS

CITY           SKY/WX    TMP DP  RH WIND       PRES   REMARKS
PONTIAC        CLOUDY    38  38 100 NW7       29.84S WCI  32
BLOOMINGTON    CLOUDY    37  35  92 W7        29.84S WCI  32
DECATUR        CLOUDY    39  36  89 W5        29.85S
PEORIA         CLOUDY    36  33  89 NW6       29.86S WCI  31
LACON*         CLOUDY    36  35  96 W3        29.85R
LINCOLN*       CLOUDY    39  37  92 NW3       29.86S
SPRINGFIELD    CLOUDY    39  35  86 W5        29.86F
TAYLORVILLE    CLOUDY    37  35  90 W5        29.86S WCI  34
$$

ILZ033-039-045-046-055>057-062-063-240800-
EAST-CENTRAL ILLINOIS

CITY           SKY/WX    TMP DP  RH WIND       PRES   REMARKS
CHAMPAIGN      CLOUDY    39  35  86 NW7       29.83S WCI  34
RANTOUL*       CLOUDY    40  38  93 NW6       29.83S
MATTOON        CLOUDY    39  35  86 NW7       29.83F WCI  34
PARIS*         CLOUDY    39  36  89 NW6       29.82F WCI  35
$$

ILZ079-100>102-240800-
SOUTHWEST ILLINOIS

CITY           SKY/WX    TMP DP  RH WIND       PRES   REMARKS
ALTON          CLOUDY    37  33  85 W3        29.87F
BELLEVILLE     CLOUDY    39  34  81 N3        29.86F
CAHOKIA*       CLOUDY    41  32  70 CALM      29.87F
SPARTA*        CLOUDY    39  32  77 CALM      29.88F
$$

ILZ064>066-069>071-074>076-080>082-084>086-088>090-092>094-240800-
SOUTH-CENTRAL ILLINOIS

CITY           SKY/WX    TMP DP  RH WIND       PRES   REMARKS
CARBONDALE     CLOUDY    40  35  83 N5        29.87F
CAIRO*         PTCLDY    33  32  97 CALM      29.88S
EFFINGHAM*     CLOUDY    40  37  86 W9        29.86F
MARION         CLOUDY    41  36  81 CALM      29.88F
MT. VERNON     CLOUDY    40  33  76 CALM      29.87F
CENTRALIA*     CLOUDY    40  35  83 NW6       29.86F
SALEM*         CLOUDY    41  34  77 W3        29.86F
METROPOLIS*    CLOUDY    41  35  77 CALM      29.88S
$$

ILZ067-068-072-073-078-083-087-091-240800-
SOUTHEAST ILLINOIS

CITY           SKY/WX    TMP DP  RH WIND       PRES   REMARKS
LAWRENCEVILLE  CLOUDY    40  36  86 W7        29.84F
FLORA*         CLOUDY    42  36  80 N5        29.86S
FAIRFIELD*     CLOUDY    41  35  79 CALM      29.84F
HARRISBURG*    CLOUDY    40  35  80 CALM      29.87F
ROBINSON*      CLOUDY    39  35  83 NW8       29.84F WCI  34
CARMI*         CLOUDY    40  35  81 NW7       29.85F
$$

ABBREVIATIONS USED IN REMARKS
   TC - TEMPERATURE IN CELSIUS
  WCI - WIND CHILL INDEX
   HX - HEAT INDEX
  VSB - VISIBILITY
$$





USA.gov is the U.S. government's official web portal to all federal, state and local government web resources and services.